Weather in Nove Mesto na Morave

Czech Republic     49°33′45″N   16°04′33″E
temp.,
°C
wind,
m/s
gust,
m/s
humid.,
%
clouds,
%
prec.,
mm/h
press.,
hPa
HPBL,
m
17 april, sat
sat1723:00+1nw4797100 0.0 1022525
02:00+1nw3797100 0.1 1021449
05:00+1nw3797100 0.0 1021539
08:00+1nw3697100 0.1 1021372
11:00+2nw3490100 0.3 1021558
14:00+2nnw3390100 0.3 1021570
17:00+2n2390100 0.0 1020403
20:00+2nnw1294100 0.0 102050
18 april, sun
sun1823:00+1n2295100 0.0 102165
02:00+1n2397100 0.0 102097
05:00+2n2498100 0.0 1019314
08:00+2nnw2699100 0.0 1019346
11:00+4nne3492100 0.1 1019620
14:00+5nne2485100 0.2 1019693
17:00+5nne3386100 0.4 1018498
20:00+4nne2392100 0.6 101860
19 april, mon
mon1923:00+4n2392100 0.0 101974
02:00+2nnw2393100 0.0 101870
05:00+3nnw2594100 0.0 1017178
08:00+4nnw3791100 0.0 1016217
11:00+7n4680100 0.2 1015727
14:00+8n5678100 1.1 1014730
17:00+7n4791100 1.1 1014509
20:00+6n3695100 1.8 1014194
20 april, tue
tue2023:00+5n2596100 0.2 1014139
02:00+5n2495100 0.8 1014110
05:00+5nnw2294100 0.2 101342
08:00+5ene259296 2.8 1014610
11:00+8e3475100 0.5 10131050
14:00+9nne0168100 1.6 1013876
17:00+9wnw2373100 1.1 1012704
20:00+6nnw228778 1.9 101316
21 april, wed
wed2123:00+4nw11885 0.1 101310
02:00+3w11905 0.1 101310
05:00+3wnw11915 0.0 101310
08:00+6w12855 0.0 1013169
11:00+10w347181 1.4 1012846
14:00+12w455955 3.4 10101490
17:00+13w334685 0.0 10081815
20:00+8ese22705 0.1 100910